 39275983	. , 2011-02-01T17:33:52+00:00 , rsync , 0 , apache.org, OK: rsync of apache.org to /pub/mirrors/apache.org/ was successfull  
 39293163	. , 2011-02-01T19:07:50+00:00 , rsync , 0 , apache.org, OK: rsync of apache.org to /pub/mirrors/apache.org/ was successfull  
 39293255	. , 2011-02-02T05:08:06+00:00 , rsync , 0 , apache.org, OK: rsync of apache.org to /pub/mirrors/apache.org/ was successfull  
 39302390	. , 2011-02-02T19:07:57+00:00 , rsync , 0 , apache.org, OK: rsync of apache.org to /pub/mirrors/apache.org/ was successfull  
 39302395	. , 2011-02-03T05:07:35+00:00 , rsync , 0 , apache.org, OK: rsync of apache.org to /pub/mirrors/apache.org/ was successfull  
 39384466	. , 2011-02-03T19:09:11+00:00 , rsync , 0 , apache.org, OK: rsync of apache.org to /pub/mirrors/apache.org/ was successfull  
 39384470	. , 2011-02-04T05:07:53+00:00 , rsync , 0 , apache.org, OK: rsync of apache.org to /pub/mirrors/apache.org/ was successfull  
 39385324	. , 2011-02-04T19:07:52+00:00 , rsync , 0 , apache.org, OK: rsync of apache.org to /pub/mirrors/apache.org/ was successfull  
 39385710	. , 2011-02-05T05:09:04+00:00 , rsync , 0 , apache.org, OK: rsync of apache.org to /pub/mirrors/apache.org/ was successfull  
 39395533	. , 2011-02-05T19:07:52+00:00 , rsync , 0 , apache.org, OK: rsync of apache.org to /pub/mirrors/apache.org/ was successfull  
 39395533	. , 2011-02-06T05:07:50+00:00 , rsync , 0 , apache.org, OK: rsync of apache.org to /pub/mirrors/apache.org/ was successfull  
 39475863	. , 2011-02-06T19:08:55+00:00 , rsync , 0 , apache.org, OK: rsync of apache.org to /pub/mirrors/apache.org/ was successfull  
 39475863	. , 2011-02-07T05:07:51+00:00 , rsync , 0 , apache.org, OK: rsync of apache.org to /pub/mirrors/apache.org/ was successfull  
 39472583	. , 2011-02-07T19:08:04+00:00 , rsync , 0 , apache.org, OK: rsync of apache.org to /pub/mirrors/apache.org/ was successfull  
 39574999	. , 2011-02-08T05:17:18+00:00 , rsync , 0 , apache.org, OK: rsync of apache.org to /pub/mirrors/apache.org/ was successfull  
 39575003	. , 2011-02-08T19:08:12+00:00 , rsync , 0 , apache.org, OK: rsync of apache.org to /pub/mirrors/apache.org/ was successfull  
 39584681	. , 2011-02-09T05:07:52+00:00 , rsync , 0 , apache.org, OK: rsync of apache.org to /pub/mirrors/apache.org/ was successfull  
 39584685	. , 2011-02-09T19:07:52+00:00 , rsync , 0 , apache.org, OK: rsync of apache.org to /pub/mirrors/apache.org/ was successfull  
 39538167	. , 2011-02-10T05:07:48+00:00 , rsync , 0 , apache.org, OK: rsync of apache.org to /pub/mirrors/apache.org/ was successfull  
 39523942	. , 2011-02-10T19:10:19+00:00 , rsync , 0 , apache.org, OK: rsync of apache.org to /pub/mirrors/apache.org/ was successfull  
 39536243	. , 2011-02-11T05:07:52+00:00 , rsync , 0 , apache.org, OK: rsync of apache.org to /pub/mirrors/apache.org/ was successfull  
 39536243	. , 2011-02-11T19:07:50+00:00 , rsync , 0 , apache.org, OK: rsync of apache.org to /pub/mirrors/apache.org/ was successfull  
 39536243	. , 2011-02-12T05:07:46+00:00 , rsync , 0 , apache.org, OK: rsync of apache.org to /pub/mirrors/apache.org/ was successfull  
 39415407	. , 2011-02-12T19:07:52+00:00 , rsync , 0 , apache.org, OK: rsync of apache.org to /pub/mirrors/apache.org/ was successfull  
 39415407	. , 2011-02-13T05:07:47+00:00 , rsync , 0 , apache.org, OK: rsync of apache.org to /pub/mirrors/apache.org/ was successfull  
 39415407	. , 2011-02-13T19:07:50+00:00 , rsync , 0 , apache.org, OK: rsync of apache.org to /pub/mirrors/apache.org/ was successfull  
 39415407	. , 2011-02-14T05:07:51+00:00 , rsync , 0 , apache.org, OK: rsync of apache.org to /pub/mirrors/apache.org/ was successfull  
 39443344	. , 2011-02-14T19:08:21+00:00 , rsync , 0 , apache.org, OK: rsync of apache.org to /pub/mirrors/apache.org/ was successfull  
 39275758	. , 2011-02-15T05:09:37+00:00 , rsync , 0 , apache.org, OK: rsync of apache.org to /pub/mirrors/apache.org/ was successfull  
 39290359	. , 2011-02-15T19:09:51+00:00 , rsync , 0 , apache.org, OK: rsync of apache.org to /pub/mirrors/apache.org/ was successfull  
 39314765	. , 2011-02-16T05:07:53+00:00 , rsync , 0 , apache.org, OK: rsync of apache.org to /pub/mirrors/apache.org/ was successfull  
 39315954	. , 2011-02-16T19:07:58+00:00 , rsync , 0 , apache.org, OK: rsync of apache.org to /pub/mirrors/apache.org/ was successfull  
 39332655	. , 2011-02-17T05:08:17+00:00 , rsync , 0 , apache.org, OK: rsync of apache.org to /pub/mirrors/apache.org/ was successfull  
 39357002	. , 2011-02-17T19:08:01+00:00 , rsync , 0 , apache.org, OK: rsync of apache.org to /pub/mirrors/apache.org/ was successfull  
 39377510	. , 2011-02-18T05:08:10+00:00 , rsync , 0 , apache.org, OK: rsync of apache.org to /pub/mirrors/apache.org/ was successfull  
 39380292	. , 2011-02-18T16:11:19+00:00 , rsync , 0 , apache.org, OK: rsync of apache.org to /pub/mirrors/apache.org/ was successfull  
 39394691	. , 2011-02-18T19:07:50+00:00 , rsync , 0 , apache.org, OK: rsync of apache.org to /pub/mirrors/apache.org/ was successfull  
 39394691	. , 2011-02-19T05:07:50+00:00 , rsync , 0 , apache.org, OK: rsync of apache.org to /pub/mirrors/apache.org/ was successfull  
 39458619	. , 2011-02-19T19:08:47+00:00 , rsync , 0 , apache.org, OK: rsync of apache.org to /pub/mirrors/apache.org/ was successfull  
 39461181	. , 2011-02-20T05:07:49+00:00 , rsync , 0 , apache.org, OK: rsync of apache.org to /pub/mirrors/apache.org/ was successfull  
 39642065	. , 2011-02-20T19:10:43+00:00 , rsync , 0 , apache.org, OK: rsync of apache.org to /pub/mirrors/apache.org/ was successfull  
 39734800	. , 2011-02-21T05:09:06+00:00 , rsync , 0 , apache.org, OK: rsync of apache.org to /pub/mirrors/apache.org/ was successfull  
 39700282	. , 2011-02-21T19:08:47+00:00 , rsync , 0 , apache.org, OK: rsync of apache.org to /pub/mirrors/apache.org/ was successfull  
 39735653	. , 2011-02-22T05:08:19+00:00 , rsync , 0 , apache.org, OK: rsync of apache.org to /pub/mirrors/apache.org/ was successfull  
 39928225	. , 2011-02-22T19:09:46+00:00 , rsync , 0 , apache.org, OK: rsync of apache.org to /pub/mirrors/apache.org/ was successfull  
 39928225	. , 2011-02-23T05:08:03+00:00 , rsync , 0 , apache.org, OK: rsync of apache.org to /pub/mirrors/apache.org/ was successfull  
 39897984	. , 2011-02-23T19:07:59+00:00 , rsync , 0 , apache.org, OK: rsync of apache.org to /pub/mirrors/apache.org/ was successfull  
 39897984	. , 2011-02-24T05:07:56+00:00 , rsync , 0 , apache.org, OK: rsync of apache.org to /pub/mirrors/apache.org/ was successfull  
 39735760	. , 2011-02-24T19:09:33+00:00 , rsync , 0 , apache.org, OK: rsync of apache.org to /pub/mirrors/apache.org/ was successfull  
 39753568	. , 2011-02-25T05:08:12+00:00 , rsync , 0 , apache.org, OK: rsync of apache.org to /pub/mirrors/apache.org/ was successfull  
 39753582	. , 2011-02-25T19:08:12+00:00 , rsync , 0 , apache.org, OK: rsync of apache.org to /pub/mirrors/apache.org/ was successfull  
 39758883	. , 2011-02-26T05:08:24+00:00 , rsync , 0 , apache.org, OK: rsync of apache.org to /pub/mirrors/apache.org/ was successfull  
 39757849	. , 2011-02-26T19:08:23+00:00 , rsync , 0 , apache.org, OK: rsync of apache.org to /pub/mirrors/apache.org/ was successfull  
 39758907	. , 2011-02-27T05:08:04+00:00 , rsync , 0 , apache.org, OK: rsync of apache.org to /pub/mirrors/apache.org/ was successfull  
 39758910	. , 2011-02-27T19:07:57+00:00 , rsync , 0 , apache.org, OK: rsync of apache.org to /pub/mirrors/apache.org/ was successfull  
 39767171	. , 2011-02-28T05:07:57+00:00 , rsync , 0 , apache.org, OK: rsync of apache.org to /pub/mirrors/apache.org/ was successfull  
 39781378	. , 2011-02-28T19:09:33+00:00 , rsync , 0 , apache.org, OK: rsync of apache.org to /pub/mirrors/apache.org/ was successfull  
 39802680	. , 2011-03-01T05:07:53+00:00 , rsync , 0 , apache.org, OK: rsync of apache.org to /pub/mirrors/apache.org/ was successfull  
 39802684	. , 2011-03-01T19:08:03+00:00 , rsync , 0 , apache.org, OK: rsync of apache.org to /pub/mirrors/apache.org/ was successfull  
 39802436	. , 2011-03-02T05:07:56+00:00 , rsync , 0 , apache.org, OK: rsync of apache.org to /pub/mirrors/apache.org/ was successfull  
 39806538	. , 2011-03-02T19:08:15+00:00 , rsync , 0 , apache.org, OK: rsync of apache.org to /pub/mirrors/apache.org/ was successfull  
 39739280	. , 2011-03-03T05:07:59+00:00 , rsync , 0 , apache.org, OK: rsync of apache.org to /pub/mirrors/apache.org/ was successfull  
 39856715	. , 2011-03-03T19:10:02+00:00 , rsync , 0 , apache.org, OK: rsync of apache.org to /pub/mirrors/apache.org/ was successfull  
 39828903	. , 2011-03-04T05:10:57+00:00 , rsync , 0 , apache.org, OK: rsync of apache.org to /pub/mirrors/apache.org/ was successfull  
 39841738	. , 2011-03-04T19:08:01+00:00 , rsync , 0 , apache.org, OK: rsync of apache.org to /pub/mirrors/apache.org/ was successfull  
 39797884	. , 2011-03-05T05:09:08+00:00 , rsync , 0 , apache.org, OK: rsync of apache.org to /pub/mirrors/apache.org/ was successfull  
 39797883	. , 2011-03-05T19:07:43+00:00 , rsync , 0 , apache.org, OK: rsync of apache.org to /pub/mirrors/apache.org/ was successfull  
 39797890	. , 2011-03-06T05:08:00+00:00 , rsync , 0 , apache.org, OK: rsync of apache.org to /pub/mirrors/apache.org/ was successfull  
 39801522	. , 2011-03-06T19:07:57+00:00 , rsync , 0 , apache.org, OK: rsync of apache.org to /pub/mirrors/apache.org/ was successfull  
 39809219	. , 2011-03-07T05:07:59+00:00 , rsync , 0 , apache.org, OK: rsync of apache.org to /pub/mirrors/apache.org/ was successfull  
 39896036	. , 2011-03-07T19:09:12+00:00 , rsync , 0 , apache.org, OK: rsync of apache.org to /pub/mirrors/apache.org/ was successfull  
 39989000	. , 2011-03-08T05:08:52+00:00 , rsync , 0 , apache.org, OK: rsync of apache.org to /pub/mirrors/apache.org/ was successfull  
 39932710	. , 2011-03-08T19:08:05+00:00 , rsync , 0 , apache.org, OK: rsync of apache.org to /pub/mirrors/apache.org/ was successfull  
 39932710	. , 2011-03-09T05:07:48+00:00 , rsync , 0 , apache.org, OK: rsync of apache.org to /pub/mirrors/apache.org/ was successfull  
 39917832	. , 2011-03-09T19:08:11+00:00 , rsync , 0 , apache.org, OK: rsync of apache.org to /pub/mirrors/apache.org/ was successfull  
 39942962	. , 2011-03-10T05:07:48+00:00 , rsync , 0 , apache.org, OK: rsync of apache.org to /pub/mirrors/apache.org/ was successfull  
 34513824	. , 2011-03-10T19:07:59+00:00 , rsync , 0 , apache.org, OK: rsync of apache.org to /pub/mirrors/apache.org/ was successfull  
 34215005	. , 2011-03-11T05:07:49+00:00 , rsync , 0 , apache.org, OK: rsync of apache.org to /pub/mirrors/apache.org/ was successfull  
 32382695	. , 2011-03-11T19:08:49+00:00 , rsync , 0 , apache.org, OK: rsync of apache.org to /pub/mirrors/apache.org/ was successfull  
 32152711	. , 2011-03-12T05:07:54+00:00 , rsync , 0 , apache.org, OK: rsync of apache.org to /pub/mirrors/apache.org/ was successfull  
 32188719	. , 2011-03-12T19:08:14+00:00 , rsync , 0 , apache.org, OK: rsync of apache.org to /pub/mirrors/apache.org/ was successfull  
 32198969	. , 2011-03-13T05:07:40+00:00 , rsync , 0 , apache.org, OK: rsync of apache.org to /pub/mirrors/apache.org/ was successfull  
 32198969	. , 2011-03-13T19:07:25+00:00 , rsync , 0 , apache.org, OK: rsync of apache.org to /pub/mirrors/apache.org/ was successfull  
 32144849	. , 2011-03-14T05:07:40+00:00 , rsync , 0 , apache.org, OK: rsync of apache.org to /pub/mirrors/apache.org/ was successfull  
 31743235	. , 2011-03-14T19:07:37+00:00 , rsync , 0 , apache.org, OK: rsync of apache.org to /pub/mirrors/apache.org/ was successfull  
 31614855	. , 2011-03-15T05:07:42+00:00 , rsync , 0 , apache.org, OK: rsync of apache.org to /pub/mirrors/apache.org/ was successfull  
 31647539	. , 2011-03-15T19:09:36+00:00 , rsync , 0 , apache.org, OK: rsync of apache.org to /pub/mirrors/apache.org/ was successfull  
 31648563	. , 2011-03-16T05:07:39+00:00 , rsync , 0 , apache.org, OK: rsync of apache.org to /pub/mirrors/apache.org/ was successfull  
 31648563	. , 2011-03-16T19:07:44+00:00 , rsync , 0 , apache.org, OK: rsync of apache.org to /pub/mirrors/apache.org/ was successfull  
 31648566	. , 2011-03-17T05:07:43+00:00 , rsync , 0 , apache.org, OK: rsync of apache.org to /pub/mirrors/apache.org/ was successfull  
 31587930	. , 2011-03-17T19:07:48+00:00 , rsync , 0 , apache.org, OK: rsync of apache.org to /pub/mirrors/apache.org/ was successfull  
 31587931	. , 2011-03-18T05:07:44+00:00 , rsync , 0 , apache.org, OK: rsync of apache.org to /pub/mirrors/apache.org/ was successfull  
 31587930	. , 2011-03-18T19:07:42+00:00 , rsync , 0 , apache.org, OK: rsync of apache.org to /pub/mirrors/apache.org/ was successfull  
 31471755	. , 2011-03-19T05:07:45+00:00 , rsync , 0 , apache.org, OK: rsync of apache.org to /pub/mirrors/apache.org/ was successfull  
 31385904	. , 2011-03-19T19:07:43+00:00 , rsync , 0 , apache.org, OK: rsync of apache.org to /pub/mirrors/apache.org/ was successfull  
 31041976	. , 2011-03-20T05:07:52+00:00 , rsync , 0 , apache.org, OK: rsync of apache.org to /pub/mirrors/apache.org/ was successfull  
 31041976	. , 2011-03-20T19:07:38+00:00 , rsync , 0 , apache.org, OK: rsync of apache.org to /pub/mirrors/apache.org/ was successfull  
 31024792	. , 2011-03-21T05:07:45+00:00 , rsync , 0 , apache.org, OK: rsync of apache.org to /pub/mirrors/apache.org/ was successfull  
 30587280	. , 2011-03-21T19:07:54+00:00 , rsync , 0 , apache.org, OK: rsync of apache.org to /pub/mirrors/apache.org/ was successfull  
 30624888	. , 2011-03-22T05:08:15+00:00 , rsync , 0 , apache.org, OK: rsync of apache.org to /pub/mirrors/apache.org/ was successfull  
 30716843	. , 2011-03-22T19:09:11+00:00 , rsync , 0 , apache.org, OK: rsync of apache.org to /pub/mirrors/apache.org/ was successfull  
 30716856	. , 2011-03-23T05:07:42+00:00 , rsync , 0 , apache.org, OK: rsync of apache.org to /pub/mirrors/apache.org/ was successfull  
 30716856	. , 2011-03-23T19:07:40+00:00 , rsync , 0 , apache.org, OK: rsync of apache.org to /pub/mirrors/apache.org/ was successfull  
 30716856	. , 2011-03-24T05:07:38+00:00 , rsync , 0 , apache.org, OK: rsync of apache.org to /pub/mirrors/apache.org/ was successfull  
 30665449	. , 2011-03-24T19:07:40+00:00 , rsync , 0 , apache.org, OK: rsync of apache.org to /pub/mirrors/apache.org/ was successfull  
 30628648	. , 2011-03-25T05:08:34+00:00 , rsync , 0 , apache.org, OK: rsync of apache.org to /pub/mirrors/apache.org/ was successfull  
 30628651	. , 2011-03-25T19:07:35+00:00 , rsync , 0 , apache.org, OK: rsync of apache.org to /pub/mirrors/apache.org/ was successfull  
 30669094	. , 2011-03-26T05:08:19+00:00 , rsync , 0 , apache.org, OK: rsync of apache.org to /pub/mirrors/apache.org/ was successfull  
 30678617	. , 2011-03-26T19:07:39+00:00 , rsync , 0 , apache.org, OK: rsync of apache.org to /pub/mirrors/apache.org/ was successfull  
 30678617	. , 2011-03-27T04:07:35+00:00 , rsync , 0 , apache.org, OK: rsync of apache.org to /pub/mirrors/apache.org/ was successfull  
 30687843	. , 2011-03-27T18:08:01+00:00 , rsync , 0 , apache.org, OK: rsync of apache.org to /pub/mirrors/apache.org/ was successfull  
 30602001	. , 2011-03-28T04:07:40+00:00 , rsync , 0 , apache.org, OK: rsync of apache.org to /pub/mirrors/apache.org/ was successfull  
 30578815	. , 2011-03-28T18:08:50+00:00 , rsync , 0 , apache.org, OK: rsync of apache.org to /pub/mirrors/apache.org/ was successfull  
 30602467	. , 2011-03-29T04:07:46+00:00 , rsync , 0 , apache.org, OK: rsync of apache.org to /pub/mirrors/apache.org/ was successfull  
 30609668	. , 2011-03-29T18:07:43+00:00 , rsync , 0 , apache.org, OK: rsync of apache.org to /pub/mirrors/apache.org/ was successfull  
 30609673	. , 2011-03-30T04:07:51+00:00 , rsync , 0 , apache.org, OK: rsync of apache.org to /pub/mirrors/apache.org/ was successfull  
 30692247	. , 2011-03-30T18:14:42+00:00 , rsync , 0 , apache.org, OK: rsync of apache.org to /pub/mirrors/apache.org/ was successfull  
 30692247	. , 2011-03-31T04:07:39+00:00 , rsync , 0 , apache.org, OK: rsync of apache.org to /pub/mirrors/apache.org/ was successfull  
